Location: Bay Harbour
(38.2612°N, 75.2555°W)
Time: 01:28:32
(UTC+00:00)

Cosmos 1315 Rocket - Pass Details

Date: 29 October 2020
Orbit: 530 x 567 km, 81.2° (Epoch: 02 December)

Event Time Altitude Azimuth Distance (km) Brightness Sun altitude
Rises 22:25:07 0° 148° (SSE) 2,672 6.1 -4.8°
Reaches altitude 10° 22:27:56 10° 126° (SE) 1,794 5.1 -5.3°
Maximum altitude 22:30:19 16° 88° (E) 1,480 4.4 -5.8°
Drops below altitude 10° 22:32:43 10° 51° (NE) 1,815 4.9 -6.2°
Sets 22:35:36 0° 29° (NNE) 2,723 6.0 -6.8°
